EW0401 Weather Reports


time (UTC)temp
C
wind
direction
speed
KPH
gust
KPH
rain 1hr
cm
rain 24hr
cm
rain mn
cm
humidity
%
barometer
mb
20260506221553 27 189 0.0 8.0 0.00 0.03 0.03 82 1009.2
20260506220052 28 0 0.0 4.8 0.00 0.03 0.03 82 1009.1
20260506214550 28 200 0.0 3.2 0.00 0.03 0.03 83 1009.0
20260506213056 28 0 1.6 8.0 0.00 0.03 0.03 83 1009.1
20260506211555 28 0 0.0 6.4 0.00 0.03 0.03 83 1009.1
20260506210054 28 0 0.0 4.8 0.00 0.03 0.03 83 1009.2
20260506204554 28 0 0.0 8.0 0.00 0.03 0.03 83 1009.4
20260506203055 27 175 1.6 11.3 0.00 0.03 0.03 83 1009.6
20260506201607 27 184 1.6 9.7 0.00 0.03 0.03 84 1009.7
20260506200054 27 0 0.0 9.7 0.00 0.03 0.03 84 1010.1
20260506194557 28 0 0.0 9.7 0.00 0.03 0.03 84 1010.2
20260506193058 28 217 0.0 12.9 0.00 0.03 0.03 83 1010.2
20260506191559 27 0 0.0 8.0 0.00 0.03 0.03 85 1010.2
20260506190056 27 0 0.0 4.8 0.00 0.03 0.03 85 1010.4
20260506184558 27 0 0.0 9.7 0.00 0.03 0.03 85 1010.8
20260506183055 27 0 0.0 4.8 0.00 0.03 0.03 86 1010.9
20260506181556 26 0 0.0 3.2 0.00 0.03 0.03 86 1011.0
20260506180053 26 0 0.0 4.8 0.00 0.03 0.03 86 1011.2
20260506174552 26 0 0.0 4.8 0.00 0.03 0.03 87 1011.3
20260506173112 26 0 0.0 3.2 0.00 0.03 0.03 87 1011.5
20260506171559 26 0 0.0 3.2 0.03 0.03 0.03 88 1011.7
20260506170057 26 348 0.0 3.2 0.03 0.03 0.03 89 1011.7
20260506164555 25 0 0.0 3.2 0.03 0.03 0.03 89 1011.8
20260506163102 25 0 0.0 3.2 0.03 0.03 0.03 88 1011.7
20260506161559 25 0 0.0 4.8 0.00 0.00 0.00 88 1011.7
20260506160052 25 197 0.0 4.8 0.00 0.00 0.00 88 1011.5
20260506154601 25 0 0.0 4.8 0.00 0.00 0.00 87 1011.4
20260506153054 26 0 0.0 4.8 0.00 0.00 0.00 87 1011.1
20260506151557 26 192 0.0 6.4 0.00 0.00 0.00 87 1011.0
20260506150059 26 0 0.0 9.7 0.00 0.00 0.00 88 1010.6
20260506144554 26 0 0.0 3.2 0.00 0.00 0.00 88 1010.4
20260506143054 25 0 0.0 9.7 0.00 0.00 0.00 88 1010.6
20260506141554 25 263 0.0 4.8 0.00 0.00 0.00 89 1010.7
20260506140101 25 0 0.0 4.8 0.00 0.00 0.00 90 1010.6
20260506134556 25 0 0.0 6.4 0.00 0.00 0.00 90 1010.6
20260506133100 24 261 0.0 1.6 0.00 0.00 0.00 90 1010.8
20260506131552 24 0 0.0 3.2 0.00 0.00 0.00 90 1010.7
20260506130056 24 0 0.0 0.0 0.00 0.00 0.00 90 1010.8
20260506124559 24 0 0.0 3.2 0.00 0.00 0.00 90 1010.8
20260506124508 24 190 0.0 3.2 0.00 0.00 0.00 91 1010.3
20260506123053 24 0 0.0 0.0 0.00 0.00 0.00 90 1010.5
20260506121553 24 0 0.0 3.2 0.00 0.00 0.00 90 1010.3
20260506120108 23 0 0.0 3.2 0.00 0.00 0.00 90 1010.2
20260506114609 23 0 0.0 4.8 0.00 0.00 0.00 90 1009.9
20260506113050 23 0 0.0 4.8 0.00 0.00 0.00 90 1009.7
20260506111556 23 0 0.0 1.6 0.00 0.00 0.00 90 1009.4
20260506110057 23 0 0.0 3.2 0.00 0.00 0.00 90 1009.5
20260506104552 23 0 0.0 4.8 0.00 0.00 0.00 90 1009.5
20260506103055 23 0 0.0 3.2 0.00 0.00 0.00 89 1009.4
20260506101553 23 0 0.0 4.8 0.00 0.00 0.00 89 1009.4
20260506100055 24 0 0.0 3.2 0.00 0.00 0.00 89 1009.4
20260506094552 24 0 0.0 4.8 0.00 0.00 0.00 89 1009.3
20260506093107 24 0 0.0 3.2 0.00 0.00 0.00 89 1009.3
20260506091554 24 0 0.0 0.0 0.00 0.00 0.00 89 1009.5
20260506090058 24 0 0.0 0.0 0.00 0.00 0.00 88 1009.6
20260506084554 24 0 0.0 1.6 0.00 0.00 0.00 88 1009.7
20260506083055 24 0 0.0 3.2 0.00 0.00 0.00 88 1009.8
20260506081553 24 0 0.0 0.0 0.00 0.00 0.00 88 1009.7
20260506080111 24 0 0.0 3.2 0.00 0.00 0.00 88 1009.8
20260506073105 24 0 0.0 6.4 0.00 0.00 0.00 88 1010.2
20260506071557 24 256 0.0 6.4 0.00 0.00 0.00 88 1010.2
20260506061601 24 0 0.0 9.7 0.00 0.00 0.00 88 1010.4
20260506044605 25 0 0.0 3.2 0.00 0.00 0.00 87 1010.7
20260506043053 25 105 0.0 6.4 0.00 0.00 0.00 87 1010.6
20260506041605 25 0 0.0 9.7 0.00 0.00 0.00 87 1010.4
20260506040100 25 0 0.0 8.0 0.00 0.00 0.00 87 1010.3
20260506034558 25 0 0.0 6.4 0.00 0.00 0.00 87 1010.3
20260506033056 25 0 0.0 3.2 0.00 0.00 0.00 88 1010.2
20260506031556 25 0 0.0 3.2 0.00 0.00 0.00 87 1010.0
20260506030054 25 0 0.0 6.4 0.00 0.00 0.00 88 1009.9
20260506024608 25 238 0.0 6.4 0.00 0.00 0.00 88 1009.5
20260506023057 25 0 0.0 4.8 0.00 0.00 0.00 87 1009.3
20260506021553 25 0 0.0 3.2 0.00 0.00 0.00 87 1009.1
20260506020117 25 0 0.0 6.4 0.00 0.00 0.00 87 1009.0
20260506014554 25 0 1.6 11.3 0.00 0.00 0.00 87 1008.8
20260506013051 25 234 0.0 3.2 0.00 0.00 0.00 87 1008.6
20260506011552 25 244 0.0 4.8 0.00 0.00 0.00 86 1008.6
20260506010053 25 186 0.0 8.0 0.00 0.00 0.00 86 1008.6
20260506004550 25 0 0.0 6.4 0.00 0.00 0.00 86 1008.3
20260506003053 25 213 0.0 12.9 0.00 0.00 0.00 86 1008.2
20260506001602 25 188 0.0 6.4 0.00 0.00 0.00 85 1008.2
20260506000113 26 282 0.0 4.8 0.00 0.00 0.00 85 1008.0
20260505234552 26 0 1.6 11.3 0.00 0.00 0.00 85 1008.2
20260505233053 26 226 0.0 8.0 0.00 0.00 0.00 84 1008.3
20260505231556 26 290 1.6 9.7 0.00 0.00 0.00 84 1008.3
20260505230052 26 0 0.0 11.3 0.00 0.00 0.00 84 1008.3
20260505224552 26 0 3.2 17.7 0.00 0.00 0.00 84 1008.2
20260505223053 26 0 0.0 12.9 0.00 0.00 0.00 83 1008.3